Time,TemperatureF,DewpointF,PressureIn,WindDirection,WindDirectionDegrees,WindSpeedMPH,WindSpeedGustMPH,Humidity,HourlyPrecipIn,Conditions,Clouds,dailyrainin,SoftwareType,DateUTC
2013-04-22 00:01:00,53.2,52.6,30.05,NE,45,4.7,-999.0,98,-99.99,,,0.00,Acu-Link.com,2013-04-22 05:01:00,
2013-04-22 00:16:00,52.3,51.8,30.05,NNE,22,4.2,-999.0,98,-99.99,,,0.00,Acu-Link.com,2013-04-22 05:16:00,
2013-04-22 00:31:00,51.8,51.3,30.06,NNW,337,5.3,-999.0,98,-99.99,,,0.00,Acu-Link.com,2013-04-22 05:31:00,
2013-04-22 00:46:00,51.4,50.9,30.05,NNE,22,3.7,-999.0,98,-99.99,,,0.00,Acu-Link.com,2013-04-22 05:46:00,
2013-04-22 01:02:00,51.6,51.1,30.04,ENE,67,5.8,-999.0,98,-99.99,,,0.00,Acu-Link.com,2013-04-22 06:02:00,
2013-04-22 01:17:00,51.4,50.9,30.05,ENE,67,4.7,-999.0,98,-99.99,,,0.00,Acu-Link.com,2013-04-22 06:17:00,
2013-04-22 01:32:00,51.4,50.9,30.05,East,90,6.3,-999.0,98,-99.99,,,0.00,Acu-Link.com,2013-04-22 06:32:00,
2013-04-22 01:47:00,51.8,51.3,30.04,NNE,22,2.7,-999.0,98,-99.99,,,0.00,Acu-Link.com,2013-04-22 06:47:00,
2013-04-22 02:02:00,51.8,51.3,30.04,NNW,337,1.7,-999.0,98,-99.99,,,0.00,Acu-Link.com,2013-04-22 07:02:00,
2013-04-22 02:18:00,51.3,50.8,30.04,WSW,247,1.7,-999.0,98,-99.99,,,0.00,Acu-Link.com,2013-04-22 07:18:00,
2013-04-22 02:33:00,51.1,50.6,30.04,WNW,292,2.2,-999.0,98,-99.99,,,0.00,Acu-Link.com,2013-04-22 07:33:00,
2013-04-22 02:48:00,51.1,50.6,30.04,WSW,247,2.7,-999.0,98,-99.99,,,0.00,Acu-Link.com,2013-04-22 07:48:00,
2013-04-22 03:03:00,51.1,50.6,30.04,WSW,247,2.7,-999.0,98,-99.99,,,0.01,Acu-Link.com,2013-04-22 08:03:00,
2013-04-22 03:19:00,50.7,50.2,30.03,SSW,202,2.2,-999.0,98,-99.99,,,0.03,Acu-Link.com,2013-04-22 08:19:00,
2013-04-22 03:34:00,50.5,50.0,30.03,WNW,292,1.1,-999.0,98,-99.99,,,0.05,Acu-Link.com,2013-04-22 08:34:00,
2013-04-22 03:49:00,50.4,49.9,30.02,East,90,1.7,-999.0,98,-99.99,,,0.09,Acu-Link.com,2013-04-22 08:49:00,
2013-04-22 04:04:00,50.4,49.9,30.02,SSE,157,3.2,-999.0,98,-99.99,,,0.11,Acu-Link.com,2013-04-22 09:04:00,
2013-04-22 04:20:00,50.2,49.7,30.00,ESE,112,3.7,-999.0,98,-99.99,,,0.11,Acu-Link.com,2013-04-22 09:20:00,
2013-04-22 04:35:00,49.8,49.3,30.00,SSE,157,4.2,-999.0,98,-99.99,,,0.11,Acu-Link.com,2013-04-22 09:35:00,
2013-04-22 04:50:00,49.5,49.0,30.01,WSW,247,3.2,-999.0,98,-99.99,,,0.11,Acu-Link.com,2013-04-22 09:50:00,
2013-04-22 05:06:00,49.3,48.8,30.00,SSE,157,3.7,-999.0,98,-99.99,,,0.11,Acu-Link.com,2013-04-22 10:06:00,
2013-04-22 05:21:00,49.3,48.8,30.00,South,180,3.2,-999.0,98,-99.99,,,0.11,Acu-Link.com,2013-04-22 10:21:00,
2013-04-22 05:36:00,48.9,48.4,29.99,South,180,4.2,-999.0,98,-99.99,,,0.11,Acu-Link.com,2013-04-22 10:36:00,
2013-04-22 05:51:00,48.7,48.2,29.99,SSE,157,3.7,-999.0,98,-99.99,,,0.11,Acu-Link.com,2013-04-22 10:51:00,
2013-04-22 06:06:00,48.6,48.1,29.99,South,180,5.3,-999.0,98,-99.99,,,0.11,Acu-Link.com,2013-04-22 11:06:00,
2013-04-22 06:22:00,48.4,47.9,29.98,SE,135,3.7,-999.0,98,-99.99,,,0.11,Acu-Link.com,2013-04-22 11:22:00,
2013-04-22 06:37:00,48.4,47.9,29.98,SSE,157,5.8,-999.0,98,-99.99,,,0.11,Acu-Link.com,2013-04-22 11:37:00,
2013-04-22 06:52:00,48.7,48.2,29.97,SE,135,5.8,-999.0,98,-99.99,,,0.11,Acu-Link.com,2013-04-22 11:52:00,
2013-04-22 07:07:00,49.5,49.0,29.98,SSE,157,8.3,-999.0,98,-99.99,,,0.11,Acu-Link.com,2013-04-22 12:07:00,
2013-04-22 07:22:00,49.8,49.3,29.97,SSE,157,6.8,-999.0,98,-99.99,,,0.11,Acu-Link.com,2013-04-22 12:22:00,
2013-04-22 07:38:00,51.3,50.8,29.98,South,180,4.2,-999.0,98,-99.99,,,0.11,Acu-Link.com,2013-04-22 12:38:00,
2013-04-22 07:53:00,51.1,50.6,29.98,SSE,157,4.2,-999.0,98,-99.99,,,0.11,Acu-Link.com,2013-04-22 12:53:00,
2013-04-22 08:08:00,51.4,50.9,29.98,South,180,6.3,-999.0,98,-99.99,,,0.11,Acu-Link.com,2013-04-22 13:08:00,
2013-04-22 08:23:00,51.3,50.8,29.98,South,180,9.4,-999.0,98,-99.99,,,0.11,Acu-Link.com,2013-04-22 13:23:00,
2013-04-22 08:39:00,51.1,50.6,29.98,SSE,157,6.3,-999.0,98,-99.99,,,0.11,Acu-Link.com,2013-04-22 13:39:00,
2013-04-22 08:54:00,51.1,50.6,29.97,SSE,157,9.9,-999.0,98,-99.99,,,0.11,Acu-Link.com,2013-04-22 13:54:00,
2013-04-22 09:09:00,51.1,50.6,29.98,SSE,157,8.3,-999.0,98,-99.99,,,0.11,Acu-Link.com,2013-04-22 14:09:00,
2013-04-22 09:24:00,51.1,50.6,29.98,South,180,7.3,-999.0,98,-99.99,,,0.11,Acu-Link.com,2013-04-22 14:24:00,
2013-04-22 09:40:00,51.3,50.8,29.98,South,180,6.8,-999.0,98,-99.99,,,0.11,Acu-Link.com,2013-04-22 14:40:00,
2013-04-22 09:55:00,52.0,51.5,29.97,SSE,157,5.3,-999.0,98,-99.99,,,0.11,Acu-Link.com,2013-04-22 14:55:00,
2013-04-22 10:10:00,52.0,51.5,29.97,SSE,157,4.7,-999.0,98,-99.99,,,0.11,Acu-Link.com,2013-04-22 15:10:00,
2013-04-22 10:25:00,52.3,51.8,29.98,South,180,5.3,-999.0,98,-99.99,,,0.11,Acu-Link.com,2013-04-22 15:25:00,
2013-04-22 10:41:00,52.9,52.4,29.99,SSE,157,1.1,-999.0,98,-99.99,,,0.11,Acu-Link.com,2013-04-22 15:41:00,
2013-04-22 10:56:00,53.4,52.8,29.97,NNE,22,3.7,-999.0,98,-99.99,,,0.11,Acu-Link.com,2013-04-22 15:56:00,
2013-04-22 11:11:00,55.0,54.4,29.96,ESE,112,4.2,-999.0,98,-99.99,,,0.11,Acu-Link.com,2013-04-22 16:11:00,
2013-04-22 11:26:00,59.0,58.4,29.94,SSE,157,4.2,-999.0,98,-99.99,,,0.11,Acu-Link.com,2013-04-22 16:26:00,
2013-04-22 11:41:00,61.5,60.9,29.92,SSE,157,8.3,-999.0,98,-99.99,,,0.11,Acu-Link.com,2013-04-22 16:41:00,
2013-04-22 11:57:00,60.6,60.0,29.91,South,180,6.3,-999.0,98,-99.99,,,0.11,Acu-Link.com,2013-04-22 16:57:00,
2013-04-22 12:12:00,60.3,59.7,29.91,SSE,157,6.3,-999.0,98,-99.99,,,0.11,Acu-Link.com,2013-04-22 17:12:00,
2013-04-22 12:27:00,61.0,60.4,29.89,SSE,157,8.9,-999.0,98,-99.99,,,0.11,Acu-Link.com,2013-04-22 17:27:00,
2013-04-22 12:42:00,60.1,59.5,29.89,South,180,8.9,-999.0,98,-99.99,,,0.11,Acu-Link.com,2013-04-22 17:42:00,
2013-04-22 12:57:00,59.5,58.9,29.90,SSW,202,9.9,-999.0,98,-99.99,,,0.11,Acu-Link.com,2013-04-22 17:57:00,
2013-04-22 13:13:00,60.1,59.5,29.89,SSE,157,7.8,-999.0,98,-99.99,,,0.11,Acu-Link.com,2013-04-22 18:13:00,
2013-04-22 13:28:00,60.3,59.7,29.87,South,180,7.3,-999.0,98,-99.99,,,0.11,Acu-Link.com,2013-04-22 18:28:00,
2013-04-22 13:43:00,60.6,60.0,29.87,South,180,8.3,-999.0,98,-99.99,,,0.11,Acu-Link.com,2013-04-22 18:43:00,
2013-04-22 13:58:00,62.1,61.5,29.85,SSE,157,8.3,-999.0,98,-99.99,,,0.11,Acu-Link.com,2013-04-22 18:58:00,
2013-04-22 14:14:00,62.4,59.7,29.84,SSE,157,9.9,-999.0,91,-99.99,,,0.11,Acu-Link.com,2013-04-22 19:14:00,
2013-04-22 14:29:00,61.7,60.8,29.84,SSE,157,9.4,-999.0,97,-99.99,,,0.11,Acu-Link.com,2013-04-22 19:29:00,
2013-04-22 14:44:00,60.3,59.7,29.86,ESE,112,10.4,-999.0,98,-99.99,,,0.11,Acu-Link.com,2013-04-22 19:44:00,
2013-04-22 14:59:00,58.6,58.0,29.85,SSW,202,3.7,-999.0,98,-99.99,,,0.11,Acu-Link.com,2013-04-22 19:59:00,
2013-04-22 15:14:00,57.4,56.8,29.86,SSW,202,7.8,-999.0,98,-99.99,,,0.11,Acu-Link.com,2013-04-22 20:14:00,
2013-04-22 15:30:00,55.0,54.4,29.87,SSW,202,10.4,-999.0,98,-99.99,,,0.14,Acu-Link.com,2013-04-22 20:30:00,
2013-04-22 15:45:00,54.0,53.4,29.87,SW,225,5.8,-999.0,98,-99.99,,,0.15,Acu-Link.com,2013-04-22 20:45:00,
2013-04-22 16:00:00,53.4,52.8,29.88,NNW,337,2.2,-999.0,98,-99.99,,,0.17,Acu-Link.com,2013-04-22 21:00:00,
2013-04-22 16:15:00,52.9,52.4,29.90,East,90,1.1,-999.0,98,-99.99,,,0.19,Acu-Link.com,2013-04-22 21:15:00,
2013-04-22 16:30:00,52.5,52.0,29.91,NE,45,2.7,-999.0,98,-99.99,,,0.25,Acu-Link.com,2013-04-22 21:30:00,
2013-04-22 16:46:00,52.0,51.5,29.91,NNW,337,1.7,-999.0,98,-99.99,,,0.29,Acu-Link.com,2013-04-22 21:46:00,
2013-04-22 17:01:00,51.6,51.1,29.92,SSW,202,6.8,-999.0,98,-99.99,,,0.37,Acu-Link.com,2013-04-22 22:01:00,
2013-04-22 17:16:00,51.8,51.3,29.92,West,270,2.7,-999.0,98,-99.99,,,0.43,Acu-Link.com,2013-04-22 22:16:00,
2013-04-22 17:32:00,49.3,48.8,29.93,NNW,337,3.7,-999.0,98,-99.99,,,0.49,Acu-Link.com,2013-04-22 22:32:00,
2013-04-22 17:47:00,47.1,46.6,29.96,West,270,5.3,-999.0,98,-99.99,,,0.50,Acu-Link.com,2013-04-22 22:47:00,
2013-04-22 18:02:00,45.0,44.5,29.96,NNW,337,6.8,-999.0,98,-99.99,,,0.53,Acu-Link.com,2013-04-22 23:02:00,
2013-04-22 18:17:00,43.5,43.0,29.97,NNW,337,7.3,-999.0,98,-99.99,,,0.57,Acu-Link.com,2013-04-22 23:17:00,
2013-04-22 18:32:00,41.7,41.2,29.97,NW,315,11.4,-999.0,98,-99.99,,,0.63,Acu-Link.com,2013-04-22 23:32:00,
2013-04-22 18:48:00,41.4,40.9,29.97,NNW,337,13.0,-999.0,98,-99.99,,,0.63,Acu-Link.com,2013-04-22 23:48:00,
2013-04-22 19:03:00,40.3,39.8,29.98,NNW,337,10.9,-999.0,98,-99.99,,,0.64,Acu-Link.com,2013-04-23 00:03:00,
2013-04-22 19:18:00,39.6,39.1,29.98,NW,315,8.3,-999.0,98,-99.99,,,0.64,Acu-Link.com,2013-04-23 00:18:00,
2013-04-22 19:33:00,39.0,38.5,30.00,NNW,337,10.9,-999.0,98,-99.99,,,0.64,Acu-Link.com,2013-04-23 00:33:00,
2013-04-22 19:48:00,38.8,38.3,30.00,NNW,337,14.0,-999.0,98,-99.99,,,0.64,Acu-Link.com,2013-04-23 00:48:00,
2013-04-22 20:04:00,38.7,38.2,30.01,WNW,292,7.3,-999.0,98,-99.99,,,0.64,Acu-Link.com,2013-04-23 01:04:00,
2013-04-22 20:19:00,38.1,37.6,30.03,NNW,337,7.8,-999.0,98,-99.99,,,0.64,Acu-Link.com,2013-04-23 01:19:00,
2013-04-22 20:34:00,37.0,36.5,30.03,NNW,337,10.4,-999.0,98,-99.99,,,0.65,Acu-Link.com,2013-04-23 01:34:00,
2013-04-22 20:50:00,36.5,36.0,30.04,WNW,292,8.9,-999.0,98,-99.99,,,0.66,Acu-Link.com,2013-04-23 01:50:00,
2013-04-22 21:05:00,36.3,35.8,30.05,NNW,337,10.9,-999.0,98,-99.99,,,0.66,Acu-Link.com,2013-04-23 02:05:00,
2013-04-22 21:20:00,36.0,35.5,30.07,NNW,337,17.6,-999.0,98,-99.99,,,0.66,Acu-Link.com,2013-04-23 02:20:00,
2013-04-22 21:35:00,36.1,35.6,30.08,NW,315,12.5,-999.0,98,-99.99,,,0.66,Acu-Link.com,2013-04-23 02:35:00,
2013-04-22 21:51:00,36.1,35.6,30.09,NNW,337,11.4,-999.0,98,-99.99,,,0.66,Acu-Link.com,2013-04-23 02:51:00,
2013-04-22 22:06:00,36.0,35.5,30.09,NW,315,16.6,-999.0,98,-99.99,,,0.66,Acu-Link.com,2013-04-23 03:06:00,
2013-04-22 22:21:00,35.6,35.1,30.07,NNW,337,17.6,-999.0,98,-99.99,,,0.66,Acu-Link.com,2013-04-23 03:21:00,
2013-04-22 22:36:00,35.4,34.9,30.06,NW,315,16.1,-999.0,98,-99.99,,,0.66,Acu-Link.com,2013-04-23 03:36:00,
2013-04-22 22:52:00,35.1,34.6,30.05,NNW,337,13.0,-999.0,98,-99.99,,,0.66,Acu-Link.com,2013-04-23 03:52:00,
2013-04-22 23:07:00,35.1,34.6,30.08,NW,315,13.0,-999.0,98,-99.99,,,0.66,Acu-Link.com,2013-04-23 04:07:00,
2013-04-22 23:22:00,35.1,34.6,30.09,North,0,22.7,-999.0,98,-99.99,,,0.66,Acu-Link.com,2013-04-23 04:22:00,
2013-04-22 23:37:00,35.1,34.6,30.11,NW,315,15.0,-999.0,98,-99.99,,,0.66,Acu-Link.com,2013-04-23 04:37:00,
2013-04-22 23:53:00,35.1,34.6,30.13,North,0,11.9,-999.0,98,-99.99,,,0.66,Acu-Link.com,2013-04-23 04:53:00,